Hourly Data Report for September 24, 2017

All times are specified in Local Standard Time (LST). Add 1 hour to adjust for Daylight Saving Time where and when it is observed.

BAKER LAKE A
NUNAVUT

64°17'56.000" N
96°04'40.000" W
18.60 m
2300503
71926
YBK

Download Data

Hourly Data (September 2017)
Hourly Data Report for September 24, 2017
Temp Definition
°C
Dew Point Temp Definition
°C
Rel Hum Definition
%
Wind Dir Definition
10's deg

Wind Spd Definition
km/h
Visibility Definition
km
Stn Press Definition
kPa
Hmdx Definition


Wind Chill Definition


Weather Definition


TIME
00:00 Legend Double Dagger -3.8 -5.7 87 30 17 24.1 102.17   -10 Clear
01:00 Legend Double Dagger -4.3 -6.0 88 30 14 24.1 102.19   -9 LegendNANA
02:00 Legend Double Dagger -4.0 -5.4 90 29 16 24.1 102.18   -10 LegendNANA
03:00 Legend Double Dagger -4.5 -5.3 94 36 2 24.1 102.20   -5 Clear
04:00 Legend Double Dagger -4.0 -4.9 94 36 1 24.1 102.19   -4 LegendNANA
05:00 Legend Double Dagger -4.2 -5.9 88 32 3 24.1 102.18   -5 LegendNANA
06:00 Legend Double Dagger -3.4 -4.3 93 36 3 40.2 102.18   -5 Clear
07:00 Legend Double Dagger -2.6 -3.5 93 1 4 40.2 102.15   -4 LegendNANA
08:00 Legend Double Dagger -1.2 -2.8 89 36 1 32.2 102.11   -2 LegendNANA
09:00 Legend Double Dagger 1.1 -1.6 82 23 8 32.2 102.12     Clear
10:00 Legend Double Dagger 2.7 -0.9 78 21 8 32.2 102.09     LegendNANA
11:00 Legend Double Dagger 4.5 -0.7 69 19 11 32.2 102.05     LegendNANA
12:00 Legend Double Dagger 6.5 -1.6 56 24 6 32.2 102.02     Clear
13:00 Legend Double Dagger 7.1 -0.8 57 26 3 32.2 101.99     LegendNANA
14:00 Legend Double Dagger 7.5 -0.3 58   0 32.2 101.96     LegendNANA
15:00 Legend Double Dagger 7.8 1.0 62 14 13 32.2 101.95     Mainly Clear
16:00 Legend Double Dagger 7.8 1.6 65 13 13 32.2 101.92     LegendNANA
17:00 Legend Double Dagger 6.2 2.3 76 15 4 32.2 101.88     LegendNANA
18:00 Legend Double Dagger 5.4 2.3 81 8 4 32.2 101.88     Mostly Cloudy
19:00 Legend Double Dagger 2.8 0.4 85 36 7 32.2 101.87     LegendNANA
20:00 Legend Double Dagger 1.6 -0.8 84 34 10 24.1 101.85     LegendNANA
21:00 Legend Double Dagger 0.4 -1.0 90 36 10 24.1 101.83     Mainly Clear
22:00 Legend Double Dagger 1.9 0.5 90 36 10 24.1 101.81     LegendNANA
23:00 Legend Double Dagger 0.8 -0.4 92 35 10 24.1 101.80     LegendNANA

Notes on Data Quality.

Legend

  • E = Estimated
  • M = Missing
  • NA = Not Available
  • ‡ = Partner data that is not subject to review by the National Climate Archives
Date modified: